TimePDT,TemperatureF,Dew PointF,Humidity,Sea Level PressureIn,VisibilityMPH,Wind Direction,Wind SpeedMPH,Gust SpeedMPH,PrecipitationIn,Events,Conditions,WindDirDegrees,DateUTC
12:56 AM,41.0,32.0,70,29.97,10.0,NW,4.6,-,N/A,,Clear,320,2012-11-02 07:56:00
1:56 AM,41.0,32.0,70,29.99,10.0,NW,8.1,-,N/A,,Clear,320,2012-11-02 08:56:00
2:56 AM,39.0,30.9,73,29.99,10.0,WNW,5.8,-,N/A,,Clear,290,2012-11-02 09:56:00
3:56 AM,37.9,30.0,73,30.00,10.0,NNW,4.6,-,N/A,,Clear,330,2012-11-02 10:56:00
4:56 AM,37.0,28.9,73,30.01,10.0,WNW,4.6,-,N/A,,Clear,290,2012-11-02 11:56:00
5:56 AM,37.0,30.0,76,30.02,10.0,NW,4.6,-,N/A,,Clear,310,2012-11-02 12:56:00
6:56 AM,35.6,28.4,75,30.10,10.0,WNW,5.8,-,N/A,,Clear,300,2012-11-02 13:56:00
7:56 AM,37.9,30.0,73,30.06,10.0,West,6.9,-,N/A,,Clear,280,2012-11-02 14:56:00
8:56 AM,46.9,33.1,59,30.06,10.0,NW,4.6,-,N/A,,Clear,320,2012-11-02 15:56:00
9:56 AM,54.0,30.9,41,30.06,10.0,NW,4.6,-,N/A,,Clear,310,2012-11-02 16:56:00
10:56 AM,61.0,32.0,34,30.04,10.0,WNW,6.9,-,N/A,,Clear,300,2012-11-02 17:56:00
11:56 AM,64.0,30.0,28,30.02,10.0,NNW,6.9,-,N/A,,Clear,340,2012-11-02 18:56:00
12:56 PM,66.9,30.0,25,29.99,10.0,Variable,4.6,-,N/A,,Clear,0,2012-11-02 19:56:00
1:56 PM,66.9,28.0,23,29.95,10.0,WSW,4.6,-,N/A,,Clear,250,2012-11-02 20:56:00
2:56 PM,68.0,28.0,22,29.94,10.0,West,4.6,-,N/A,,Clear,270,2012-11-02 21:56:00
3:56 PM,69.1,27.0,21,29.93,10.0,West,3.5,-,N/A,,Clear,260,2012-11-02 22:56:00
4:56 PM,68.0,27.0,21,29.94,10.0,South,3.5,-,N/A,,Clear,180,2012-11-02 23:56:00
5:56 PM,62.1,27.0,26,29.96,10.0,Calm,Calm,-,N/A,,Clear,0,2012-11-03 00:56:00
6:56 PM,53.1,28.9,40,30.01,10.0,Calm,Calm,-,N/A,,Clear,0,2012-11-03 01:56:00
7:56 PM,50.0,30.0,46,30.03,10.0,WNW,3.5,-,N/A,,Clear,290,2012-11-03 02:56:00
8:56 PM,43.0,27.0,53,30.03,10.0,Calm,Calm,-,N/A,,Clear,0,2012-11-03 03:56:00
9:56 PM,39.9,25.0,55,30.04,10.0,NNW,6.9,-,N/A,,Clear,340,2012-11-03 04:56:00
10:56 PM,44.1,26.1,49,30.04,10.0,WNW,6.9,-,N/A,,Clear,290,2012-11-03 05:56:00
11:56 PM,37.9,24.1,57,30.05,10.0,NNW,3.5,-,N/A,,Clear,330,2012-11-03 06:56:00